TimeEST,TemperatureF,Dew PointF,Humidity,Sea Level PressureIn,VisibilityMPH,Wind Direction,Wind SpeedMPH,Gust SpeedMPH,PrecipitationIn,Events,Conditions,WindDirDegrees,DateUTC
12:53 AM,28.0,26.1,92,30.22,6.0,Variable,6.9,-,N/A,,Overcast,0,2013-01-26 05:53:00
1:17 AM,28.4,26.6,93,30.18,6.0,West,5.8,-,N/A,,Overcast,270,2013-01-26 06:17:00
1:53 AM,27.0,25.0,92,30.22,6.0,Variable,3.5,-,N/A,,Mostly Cloudy,0,2013-01-26 06:53:00
2:04 AM,26.6,24.8,93,30.18,5.0,Calm,Calm,-,N/A,,Scattered Clouds,0,2013-01-26 07:04:00
2:46 AM,26.6,23.0,86,30.18,6.0,Calm,Calm,-,N/A,,Scattered Clouds,0,2013-01-26 07:46:00
2:53 AM,26.1,24.1,92,30.22,6.0,Variable,3.5,-,N/A,,Scattered Clouds,0,2013-01-26 07:53:00
3:02 AM,26.6,24.8,93,30.18,6.0,Calm,Calm,-,N/A,,Mostly Cloudy,0,2013-01-26 08:02:00
3:53 AM,26.1,24.1,92,30.22,5.0,SW,4.6,-,N/A,,Partly Cloudy,220,2013-01-26 08:53:00
4:14 AM,26.6,24.8,93,30.18,5.0,SW,3.5,-,N/A,,Mostly Cloudy,220,2013-01-26 09:14:00
4:53 AM,25.0,23.0,92,30.21,5.0,Variable,4.6,-,N/A,,Mostly Cloudy,0,2013-01-26 09:53:00
5:02 AM,24.8,23.0,93,30.17,5.0,SW,3.5,-,N/A,,Scattered Clouds,220,2013-01-26 10:02:00
5:53 AM,25.0,23.0,92,30.21,5.0,SSW,3.5,-,N/A,,Clear,210,2013-01-26 10:53:00
6:06 AM,24.8,23.0,93,30.17,5.0,SSW,3.5,-,N/A,,Partly Cloudy,210,2013-01-26 11:06:00
6:27 AM,24.8,23.0,93,30.18,5.0,SW,4.6,-,N/A,,Mostly Cloudy,230,2013-01-26 11:27:00
6:53 AM,24.8,24.8,100,30.19,5.0,Variable,4.6,-,N/A,,Overcast,0,2013-01-26 11:53:00
7:53 AM,26.1,24.1,92,30.26,5.0,Variable,3.5,-,N/A,,Overcast,0,2013-01-26 12:53:00
8:53 AM,26.1,24.1,92,30.29,4.0,West,4.6,-,N/A,,Overcast,260,2013-01-26 13:53:00
9:53 AM,27.0,24.1,89,30.31,4.0,Variable,4.6,-,N/A,,Overcast,0,2013-01-26 14:53:00
10:53 AM,27.0,26.1,96,30.32,3.0,West,6.9,-,N/A,,Overcast,270,2013-01-26 15:53:00
11:15 AM,28.4,26.6,93,30.29,4.0,Calm,Calm,-,N/A,,Overcast,0,2013-01-26 16:15:00
11:29 AM,28.4,26.6,93,30.29,4.0,Calm,Calm,-,N/A,,Overcast,0,2013-01-26 16:29:00
11:53 AM,28.0,26.1,92,30.33,4.0,Variable,3.5,-,N/A,,Overcast,0,2013-01-26 16:53:00
12:53 PM,27.0,24.1,89,30.33,4.0,Variable,5.8,-,N/A,,Overcast,0,2013-01-26 17:53:00
1:03 PM,26.6,24.8,93,30.28,4.0,Variable,5.8,-,N/A,,Overcast,0,2013-01-26 18:03:00
1:53 PM,28.0,26.1,92,30.32,4.0,Variable,3.5,-,N/A,,Overcast,0,2013-01-26 18:53:00
2:08 PM,28.4,24.8,86,30.27,5.0,Calm,Calm,-,N/A,,Overcast,0,2013-01-26 19:08:00
2:53 PM,28.0,25.0,88,30.32,6.0,Calm,Calm,-,N/A,,Overcast,0,2013-01-26 19:53:00
3:53 PM,28.0,25.0,88,30.35,6.0,Calm,Calm,-,N/A,,Overcast,0,2013-01-26 20:53:00
4:00 PM,28.4,24.8,86,30.30,6.0,Calm,Calm,-,N/A,,Overcast,0,2013-01-26 21:00:00
4:53 PM,28.0,25.0,88,30.35,6.0,Calm,Calm,-,N/A,,Overcast,0,2013-01-26 21:53:00
5:48 PM,26.6,23.0,86,30.32,6.0,Calm,Calm,-,N/A,,Scattered Clouds,0,2013-01-26 22:48:00
5:53 PM,26.1,23.0,88,30.37,5.0,Calm,Calm,-,N/A,,Partly Cloudy,0,2013-01-26 22:53:00
6:53 PM,26.1,21.0,81,30.38,10.0,Calm,Calm,-,N/A,,Clear,0,2013-01-26 23:53:00
7:53 PM,26.1,21.0,81,30.39,9.0,Calm,Calm,-,N/A,,Clear,0,2013-01-27 00:53:00
8:53 PM,25.0,21.0,85,30.40,7.0,Calm,Calm,-,N/A,,Clear,0,2013-01-27 01:53:00
9:53 PM,26.1,21.0,81,30.41,8.0,Calm,Calm,-,N/A,,Clear,0,2013-01-27 02:53:00
10:53 PM,25.0,21.0,85,30.43,8.0,Calm,Calm,-,N/A,,Clear,0,2013-01-27 03:53:00
11:53 PM,23.0,19.9,88,30.45,5.0,NE,3.5,-,N/A,,Partly Cloudy,40,2013-01-27 04:53:00